Weather History for Springfield, OH

Change the Weather History Date:

Wednesday, April 23, 2014

  Actual Average (KDAY) Record (KDAY)
Temperature  
Mean Temperature 46 °F 54 °F  
Max Temperature 57 °F 65 °F 86 °F (1960)
Min Temperature 34 °F 44 °F 26 °F (1986)
Degree Days  
Heating Degree Days 20 11  
Month to date heating degree days 342  
Since 1 July heating degree days 5381  
Cooling Degree Days 0 1  
Month to date cooling degree days 3  
Year to date cooling degree days 3  
Moisture  
Dew Point 33 °F    
Average Humidity 62    
Maximum Humidity 85    
Minimum Humidity 40    
Precipitation  
Precipitation 0.00 in 0.15 in 1.93 in (1996)
Month to date precipitation 3.11  
Year to date precipitation 11.40  
Snow  
Snow 0.00 in 0.00 in 0.50 in (2005)
Month to date snowfall 0.6  
Since 1 July snowfall 23.3  
Snow Depth -    
Sea Level Pressure  
Sea Level Pressure 30.07 in    
Wind  
Wind Speed 8 mph (North)    
Max Wind Speed 12 mph    
Max Gust Speed -    
Visibility 7 miles    
Events      
T = Trace of Precipitation, MM = Missing Value Source: NWS Daily Summary

Daily Weather History Graph

Daily Weather History Graph

Search for Another Location

Airport:

Trip Planner

Search our weather history database for the weather conditions in past years. The results will help you decide how hot, cold, wet, or windy it might be!

Date:

Astronomy

Apr. 23, 2014 Rise Set
Actual Time 6:46 AM EDT 8:21 PM EDT
Civil Twilight 6:17 AM EDT 8:50 PM EDT
Nautical Twilight 5:43 AM EDT 9:24 PM EDT
Astronomical Twilight 5:06 AM EDT 10:01 PM EDT
Moon 3:16 AM EDT (4/23) 2:29 PM EDT (4/23)
Length of Visible Light 14h 32m
Length of Day
13h 35m
Waning Crescent, 35% of the Moon is Illuminated
Apr 23
Waning Crescent
Apr 29
New
May 6
First Quarter
May 14
Full
May 21
Last Quarter

Hourly Weather History & Observations

Time (EDT) Temp. Windchill Dew Point Humidity Pressure Visibility Wind Dir Wind Speed Gust Speed Precip Events Conditions
12:56 AM 41.9 °F 35.9 °F 32.0 °F 68% 29.97 in 8.0 mi NW 10.4 mph - N/A   Clear
1:56 AM 39.9 °F 34.5 °F 32.0 °F 73% 29.97 in 8.0 mi NNW 8.1 mph - N/A   Clear
2:56 AM 38.8 °F 33.2 °F 31.1 °F 74% 29.98 in 8.0 mi NW 8.1 mph - N/A   Clear
3:56 AM 36.9 °F 31.4 °F 31.1 °F 80% 29.98 in 8.0 mi NW 6.9 mph - N/A   Clear
4:56 AM 37.9 °F 31.5 °F 31.1 °F 76% 30.00 in 8.0 mi NW 9.2 mph - N/A   Clear
5:56 AM 34.9 °F 27.7 °F 30.0 °F 82% 30.02 in 8.0 mi NNW 9.2 mph - N/A   Clear
6:56 AM 34.0 °F 26.6 °F 30.0 °F 85% 30.05 in 7.0 mi NNW 9.2 mph - N/A   Clear
7:56 AM 36.9 °F 30.1 °F 31.1 °F 80% 30.07 in 7.0 mi NNW 9.2 mph - N/A   Clear
8:56 AM 39.9 °F 34.5 °F 31.1 °F 71% 30.09 in 7.0 mi North 8.1 mph - N/A   Clear
9:56 AM 43.9 °F 38.3 °F 32.0 °F 63% 30.11 in 7.0 mi North 10.4 mph - N/A   Clear
10:56 AM 45.0 °F 41.2 °F 32.0 °F 60% 30.11 in 7.0 mi WNW 6.9 mph - N/A   Clear
11:56 AM 47.8 °F - 32.9 °F 56% 30.12 in 7.0 mi Variable 4.6 mph - N/A   Partly Cloudy
12:56 PM 50.9 °F - 34.0 °F 52% 30.12 in 7.0 mi North 8.1 mph - N/A   Clear
1:56 PM 52.9 °F - 34.0 °F 49% 30.10 in 7.0 mi Calm Calm - N/A   Clear
2:56 PM 54.9 °F - 32.9 °F 43% 30.10 in 7.0 mi Variable 4.6 mph - N/A   Clear
3:56 PM 57.9 °F - 34.0 °F 41% 30.09 in 7.0 mi Variable 6.9 mph - N/A   Clear
4:56 PM 57.9 °F - 34.9 °F 42% 30.08 in 7.0 mi Variable 5.8 mph - N/A   Clear
5:56 PM 57.9 °F - 34.0 °F 41% 30.07 in 7.0 mi North 11.5 mph - N/A   Clear
6:56 PM 56.8 °F - 32.9 °F 40% 30.09 in 7.0 mi North 8.1 mph - N/A   Clear
7:56 PM 52.9 °F - 34.0 °F 49% 30.09 in 6.0 mi NNW 8.1 mph - N/A   Haze
8:56 PM 50.0 °F - 32.9 °F 52% 30.11 in 8.0 mi NNE 5.8 mph - N/A   Clear
9:56 PM 45.9 °F 41.7 °F 34.0 °F 63% 30.12 in 8.0 mi NE 8.1 mph - N/A   Clear
10:56 PM 43.0 °F 38.8 °F 32.9 °F 68% 30.13 in 8.0 mi ENE 6.9 mph - N/A   Clear
11:56 PM 41.0 °F 35.8 °F 34.0 °F 76% 30.12 in 7.0 mi ENE 8.1 mph - N/A   Clear